Location: Angwan Shehu
(11.2514°N, 7.4613°E)
Time: 03:44:07
(UTC+00:00)

Vanguard 3 - Pass Details

Date: 29 July 2021
Orbit: 510 x 3260 km, 33.3° (Epoch: 16 September)

Event Time Altitude Azimuth Distance (km) Brightness Sun altitude
Rises 01:26:26 0° 302° (WNW) 6,923 11.8 -49.6°
Reaches altitude 10° 01:31:32 10° 301° (WNW) 5,627 11.3 -48.8°
Enters shadow 01:33:30 15° 300° (WNW) 5,110 11.0 -48.4°
Exits shadow 01:57:59 - 130° (SE) 3,890 10.7 -44.0°
Sets 01:58:24 0° 130° (SE) 4,026 10.8 -44.0°
